BVX34A EDDS-EGCC

Flight info

Callsign BVX34A
Flight time 1h 22m
Altitude 24000
Route VESID4B VESID Y127 UBEGA Z818 RINEX/N0277F080 Z12 XIDOD/N0281F090 Q762 OLGAD/N0478F340 DCT ADENU L608 DENUT L610 LAM UN57 WELIN T420 TNT
Aircraft B77L/H-SDE1E2E3FGHIJ2J3J4J5M1RWXY/LB1D1

Departure

Time 2026-05-05 18:39
Airport Stuttgart Airport (EDDS)

Arrival

Time 2026-05-05 20:02
Airport Manchester Airport (EGCC)
Time Latitude Longitude Altitude Speed Heading
2026-05-05 18:05 48.68388 9.20760 1281 ft 0 kts 164°
2026-05-05 18:24 48.68391 9.20759 1281 ft 3 kts 164°
2026-05-05 18:24 48.68411 9.20750 1284 ft 3 kts 164°
2026-05-05 18:24 48.68428 9.20742 1284 ft 3 kts 164°
2026-05-05 18:24 48.68446 9.20739 1283 ft 3 kts 201°
2026-05-05 18:25 48.68462 9.20754 1282 ft 3 kts 230°
2026-05-05 18:25 48.68470 9.20770 1281 ft 3 kts 240°
2026-05-05 18:25 48.68480 9.20805 1279 ft 2 kts 254°
2026-05-05 18:25 48.68481 9.20805 1279 ft 2 kts 254°
2026-05-05 18:28 48.68477 9.20785 1277 ft 6 kts 253°
2026-05-05 18:28 48.68465 9.20722 1280 ft 6 kts 253°
2026-05-05 18:28 48.68453 9.20659 1280 ft 6 kts 253°
2026-05-05 18:29 48.68440 9.20597 1283 ft 7 kts 253°
2026-05-05 18:29 48.68422 9.20501 1286 ft 12 kts 254°
2026-05-05 18:29 48.68394 9.20348 1287 ft 18 kts 254°
2026-05-05 18:29 48.68359 9.20192 1291 ft 11 kts 250°
2026-05-05 18:30 48.68380 9.20115 1293 ft 11 kts 332°
2026-05-05 18:30 48.68436 9.20087 1291 ft 5 kts 342°
2026-05-05 18:30 48.68442 9.20084 1291 ft 0 kts 342°
2026-05-05 18:30 48.68448 9.20081 1291 ft 7 kts 343°
2026-05-05 18:31 48.68549 9.20039 1289 ft 19 kts 347°
2026-05-05 18:31 48.68676 9.19987 1293 ft 16 kts 343°
2026-05-05 18:31 48.68781 9.19967 1298 ft 15 kts 12°
2026-05-05 18:31 48.68847 9.20083 1298 ft 16 kts 72°
2026-05-05 18:32 48.68879 9.20246 1294 ft 17 kts 74°
2026-05-05 18:32 48.68914 9.20432 1289 ft 19 kts 74°
2026-05-05 18:32 48.68952 9.20633 1287 ft 21 kts 74°
2026-05-05 18:32 48.68993 9.20850 1280 ft 22 kts 74°
2026-05-05 18:33 48.69035 9.21073 1279 ft 22 kts 74°
2026-05-05 18:33 48.69079 9.21303 1271 ft 23 kts 74°
2026-05-05 18:33 48.69124 9.21539 1271 ft 23 kts 74°
2026-05-05 18:33 48.69169 9.21779 1262 ft 24 kts 73°
2026-05-05 18:34 48.69216 9.22022 1258 ft 24 kts 74°
2026-05-05 18:34 48.69262 9.22267 1253 ft 24 kts 74°
2026-05-05 18:34 48.69295 9.22446 1248 ft 16 kts 75°
2026-05-05 18:34 48.69325 9.22613 1249 ft 17 kts 75°
2026-05-05 18:35 48.69357 9.22794 1243 ft 19 kts 75°
2026-05-05 18:35 48.69398 9.22983 1230 ft 19 kts 74°
2026-05-05 18:35 48.69434 9.23181 1226 ft 20 kts 75°
2026-05-05 18:35 48.69468 9.23359 1223 ft 16 kts 74°
2026-05-05 18:36 48.69500 9.23527 1219 ft 17 kts 72°
2026-05-05 18:36 48.69534 9.23700 1216 ft 12 kts 73°
2026-05-05 18:36 48.69553 9.23800 1213 ft 11 kts 75°
2026-05-05 18:36 48.69575 9.23920 1211 ft 13 kts 73°
2026-05-05 18:37 48.69602 9.24058 1208 ft 15 kts 73°
2026-05-05 18:37 48.69602 9.24176 1203 ft 13 kts 115°
2026-05-05 18:37 48.69563 9.24272 1199 ft 9 kts 134°
2026-05-05 18:37 48.69494 9.24321 1195 ft 13 kts 161°
2026-05-05 18:38 48.69417 9.24345 1195 ft 9 kts 197°
2026-05-05 18:38 48.69385 9.24281 1196 ft 0 kts 250°
2026-05-05 18:38 48.69385 9.24279 1196 ft 4 kts 251°
2026-05-05 18:38 48.69329 9.23996 1202 ft 62 kts 254°
2026-05-05 18:39 48.69144 9.23021 1221 ft 128 kts 253°
2026-05-05 18:39 48.68841 9.21454 1287 ft 175 kts 253°
2026-05-05 18:39 48.68538 9.19729 1843 ft 174 kts 254°
2026-05-05 18:39 48.68212 9.17989 2653 ft 164 kts 254°
2026-05-05 18:40 48.67887 9.16339 3321 ft 166 kts 253°
2026-05-05 18:40 48.67529 9.14545 3585 ft 189 kts 252°
2026-05-05 18:40 48.67120 9.12520 3854 ft 215 kts 252°
2026-05-05 18:40 48.66993 9.10201 4199 ft 234 kts 280°
2026-05-05 18:41 48.67754 9.07964 4829 ft 253 kts 308°
2026-05-05 18:41 48.69263 9.06440 5504 ft 270 kts 334°
2026-05-05 18:41 48.71075 9.05568 6186 ft 278 kts 337°
2026-05-05 18:41 48.72924 9.04677 7000 ft 280 kts 337°
2026-05-05 18:42 48.74780 9.03758 7828 ft 282 kts 337°
2026-05-05 18:42 48.76653 9.02813 8611 ft 286 kts 336°
2026-05-05 18:42 48.78534 9.01857 9391 ft 290 kts 336°
2026-05-05 18:42 48.80452 9.00830 10136 ft 295 kts 334°
2026-05-05 18:43 48.82423 8.99666 10496 ft 316 kts 334°
2026-05-05 18:43 48.84547 8.98385 10703 ft 342 kts 334°
2026-05-05 18:43 48.86850 8.97006 10919 ft 367 kts 335°
2026-05-05 18:43 48.89273 8.95570 11535 ft 380 kts 335°
2026-05-05 18:44 48.91777 8.94094 11870 ft 391 kts 335°
2026-05-05 18:44 48.94326 8.92595 12891 ft 393 kts 335°
2026-05-05 18:44 48.96883 8.91085 13959 ft 395 kts 335°
2026-05-05 18:44 48.99455 8.89555 14809 ft 400 kts 336°
2026-05-05 18:45 49.02068 8.87995 15612 ft 406 kts 336°
2026-05-05 18:45 49.04724 8.86408 16417 ft 412 kts 336°
2026-05-05 18:45 49.07405 8.84806 17203 ft 417 kts 336°
2026-05-05 18:45 49.10127 8.83178 17959 ft 423 kts 336°
2026-05-05 18:46 49.12883 8.81529 18665 ft 428 kts 336°
2026-05-05 18:46 49.15678 8.79922 19309 ft 430 kts 341°
2026-05-05 18:46 49.18632 8.79255 19806 ft 442 kts
2026-05-05 18:46 49.21674 8.79611 20336 ft 436 kts 360°
2026-05-05 18:47 49.24677 8.78858 20707 ft 444 kts 337°
2026-05-05 18:47 49.27297 8.76402 21352 ft 443 kts 315°
2026-05-05 18:47 49.29180 8.72715 22104 ft 438 kts 299°
2026-05-05 18:47 49.30749 8.68680 22618 ft 445 kts 300°
2026-05-05 18:48 49.32343 8.64587 23154 ft 451 kts 296°
2026-05-05 18:48 49.33872 8.60372 23717 ft 454 kts 298°
2026-05-05 18:48 49.35533 8.56210 23892 ft 461 kts 301°
2026-05-05 18:48 49.37285 8.52031 23939 ft 472 kts 301°
2026-05-05 18:49 49.39093 8.47751 23877 ft 481 kts 301°
2026-05-05 18:49 49.40908 8.43427 23853 ft 482 kts 301°
2026-05-05 18:49 49.42705 8.39097 23858 ft 481 kts 301°
2026-05-05 18:49 49.44487 8.34758 23857 ft 481 kts 300°
2026-05-05 18:50 49.46266 8.30390 23847 ft 481 kts 300°
2026-05-05 18:50 49.48034 8.26026 23850 ft 482 kts 300°
2026-05-05 18:50 49.49805 8.21640 23859 ft 482 kts 300°
2026-05-05 18:50 49.51571 8.17259 23852 ft 483 kts 300°
2026-05-05 18:51 49.53338 8.12870 23848 ft 483 kts 300°
2026-05-05 18:51 49.55110 8.08463 23871 ft 483 kts 300°
2026-05-05 18:51 49.56879 8.04055 23875 ft 483 kts 300°
2026-05-05 18:51 49.58647 7.99646 23870 ft 483 kts 300°
2026-05-05 18:52 49.60410 7.95242 23879 ft 484 kts 300°
2026-05-05 18:52 49.62184 7.90802 24247 ft 488 kts 300°
2026-05-05 18:52 49.63946 7.86386 24785 ft 490 kts 300°
2026-05-05 18:52 49.65737 7.81888 25274 ft 494 kts 300°
2026-05-05 18:53 49.67544 7.77345 25743 ft 497 kts 300°
2026-05-05 18:53 49.69353 7.72789 26208 ft 499 kts 300°
2026-05-05 18:53 49.71158 7.68233 26168 ft 499 kts 300°
2026-05-05 18:53 49.72977 7.63633 26245 ft 504 kts 300°
2026-05-05 18:54 49.74817 7.58973 26576 ft 509 kts 300°
2026-05-05 18:54 49.76662 7.54292 27151 ft 508 kts 300°
2026-05-05 18:54 49.78500 7.49625 27794 ft 507 kts 300°
2026-05-05 18:54 49.80328 7.44972 28402 ft 506 kts 300°
2026-05-05 18:55 49.82153 7.40317 28983 ft 506 kts 300°
2026-05-05 18:55 49.83979 7.35650 29582 ft 506 kts 300°
2026-05-05 18:55 49.85801 7.30987 30056 ft 508 kts 300°
2026-05-05 18:55 49.87632 7.26292 30472 ft 509 kts 300°
2026-05-05 18:56 49.89457 7.21603 30981 ft 507 kts 300°
2026-05-05 18:56 49.91276 7.16922 31520 ft 505 kts 300°
2026-05-05 18:56 49.93084 7.12260 32186 ft 505 kts 300°
2026-05-05 18:56 49.94896 7.07580 32611 ft 504 kts 300°
2026-05-05 18:57 49.96699 7.02914 33044 ft 504 kts 300°
2026-05-05 18:57 49.98493 6.98265 33501 ft 503 kts 300°
2026-05-05 18:57 50.00286 6.93608 33850 ft 504 kts 299°
2026-05-05 18:57 50.02094 6.88906 34202 ft 505 kts 299°
2026-05-05 18:58 50.03868 6.84282 34641 ft 503 kts 299°
2026-05-05 18:58 50.05654 6.79620 35094 ft 500 kts 299°
2026-05-05 18:58 50.07431 6.74975 35520 ft 497 kts 299°
2026-05-05 18:58 50.09195 6.70352 35906 ft 496 kts 299°
2026-05-05 18:59 50.12735 6.61050 35917 ft 500 kts 298°
2026-05-05 18:59 50.16265 6.51793 35822 ft 494 kts 300°
2026-05-05 19:00 50.20543 6.43249 35828 ft 503 kts 312°
2026-05-05 19:00 50.25755 6.35910 35795 ft 506 kts 320°
2026-05-05 19:01 50.31210 6.28992 35800 ft 505 kts 320°
2026-05-05 19:01 50.36637 6.22032 35816 ft 503 kts 319°
2026-05-05 19:02 50.42008 6.15033 35820 ft 502 kts 319°
2026-05-05 19:02 50.47309 6.08084 35840 ft 500 kts 319°
2026-05-05 19:03 50.52643 6.01078 35848 ft 499 kts 319°
2026-05-05 19:03 50.57968 5.94067 35854 ft 499 kts 319°
2026-05-05 19:04 50.63033 5.86673 35873 ft 495 kts 306°
2026-05-05 19:04 50.66421 5.77347 35892 ft 489 kts 287°
2026-05-05 19:05 50.68236 5.67077 35921 ft 487 kts 282°
2026-05-05 19:05 50.70174 5.56828 35972 ft 489 kts 285°
2026-05-05 19:06 50.72271 5.46619 35972 ft 489 kts 285°
2026-05-05 19:06 50.74338 5.36381 35959 ft 490 kts 285°
2026-05-05 19:07 50.76028 5.27842 35941 ft 489 kts 284°
2026-05-05 19:07 50.78364 5.15944 35877 ft 487 kts 284°
2026-05-05 19:08 50.80365 5.05718 35882 ft 486 kts 284°
2026-05-05 19:08 50.82331 4.95510 35882 ft 484 kts 284°
2026-05-05 19:09 50.84265 4.85321 35886 ft 483 kts 284°
2026-05-05 19:09 50.86190 4.75147 35888 ft 482 kts 284°
2026-05-05 19:10 50.88106 4.64989 35894 ft 479 kts 283°
2026-05-05 19:10 50.89750 4.56669 35960 ft 475 kts 288°
2026-05-05 19:11 50.92615 4.47227 35962 ft 477 kts 298°
2026-05-05 19:11 50.96094 4.38299 35965 ft 476 kts 298°
2026-05-05 19:12 50.99571 4.29376 35951 ft 475 kts 298°
2026-05-05 19:12 51.03014 4.20398 35934 ft 476 kts 298°
2026-05-05 19:13 51.06442 4.11387 35924 ft 477 kts 297°
2026-05-05 19:13 51.09852 4.02385 35914 ft 478 kts 297°
2026-05-05 19:14 51.13282 3.93307 35893 ft 479 kts 297°
2026-05-05 19:14 51.16712 3.84197 35888 ft 480 kts 297°
2026-05-05 19:15 51.20147 3.75046 35900 ft 480 kts 298°
2026-05-05 19:15 51.23185 3.65617 35899 ft 476 kts 288°
2026-05-05 19:16 51.25040 3.55528 35906 ft 471 kts 278°
2026-05-05 19:16 51.26305 3.45259 35903 ft 471 kts 278°
2026-05-05 19:17 51.27636 3.35023 35915 ft 471 kts 279°
2026-05-05 19:17 51.28964 3.24831 35928 ft 471 kts 279°
2026-05-05 19:18 51.30288 3.14576 35923 ft 471 kts 279°
2026-05-05 19:18 51.31599 3.04337 35935 ft 470 kts 279°
2026-05-05 19:19 51.32900 2.94092 35937 ft 470 kts 279°
2026-05-05 19:19 51.34190 2.83870 35947 ft 470 kts 279°
2026-05-05 19:20 51.35477 2.73593 35950 ft 470 kts 278°
2026-05-05 19:20 51.36735 2.63347 35938 ft 470 kts 278°
2026-05-05 19:21 51.37974 2.53155 35941 ft 470 kts 278°
2026-05-05 19:21 51.39216 2.42876 35950 ft 470 kts 278°
2026-05-05 19:22 51.40450 2.32596 35960 ft 471 kts 278°
2026-05-05 19:22 51.41678 2.22347 35960 ft 472 kts 278°
2026-05-05 19:23 51.42941 2.12028 35950 ft 472 kts 279°
2026-05-05 19:23 51.44198 2.01694 35957 ft 472 kts 278°
2026-05-05 19:24 51.45434 1.91355 35968 ft 472 kts 278°
2026-05-05 19:24 51.46642 1.80999 35968 ft 473 kts 278°
2026-05-05 19:25 51.47835 1.70625 35963 ft 473 kts 278°
2026-05-05 19:25 51.49021 1.60242 35978 ft 473 kts 278°
2026-05-05 19:26 51.50197 1.49873 35965 ft 473 kts 278°
2026-05-05 19:26 51.51368 1.39476 35986 ft 472 kts 278°
2026-05-05 19:27 51.52519 1.29166 35983 ft 472 kts 278°
2026-05-05 19:27 51.53666 1.18795 35981 ft 472 kts 278°
2026-05-05 19:28 51.54806 1.08407 35985 ft 472 kts 278°
2026-05-05 19:28 51.55936 0.98027 36003 ft 471 kts 278°
2026-05-05 19:29 51.57056 0.87643 36019 ft 472 kts 278°
2026-05-05 19:29 51.58167 0.77252 36025 ft 472 kts 277°
2026-05-05 19:30 51.59270 0.66842 36021 ft 472 kts 277°
2026-05-05 19:30 51.60364 0.56435 36024 ft 472 kts 277°
2026-05-05 19:31 51.61871 0.46182 36013 ft 475 kts 292°
2026-05-05 19:31 51.63486 0.41518 36021 ft 479 kts 303°
2026-05-05 19:31 51.65580 0.37340 36008 ft 482 kts 313°
2026-05-05 19:32 51.70444 0.29861 36057 ft 483 kts 315°
2026-05-05 19:32 51.75330 0.22382 36037 ft 485 kts 314°
2026-05-05 19:33 51.80210 0.14787 36051 ft 486 kts 314°
2026-05-05 19:33 51.85057 0.07163 36052 ft 486 kts 314°
2026-05-05 19:34 51.89866 -0.00438 36043 ft 486 kts 314°
2026-05-05 19:35 51.97145 -0.11984 36046 ft 486 kts 314°
2026-05-05 19:35 52.01946 -0.19626 36047 ft 486 kts 314°
2026-05-05 19:36 52.06731 -0.27266 36048 ft 486 kts 314°
2026-05-05 19:36 52.11541 -0.34971 36042 ft 485 kts 314°
2026-05-05 19:37 52.16342 -0.42686 36042 ft 485 kts 314°
2026-05-05 19:37 52.21137 -0.50416 36044 ft 484 kts 314°
2026-05-05 19:38 52.25921 -0.58154 36044 ft 484 kts 314°
2026-05-05 19:38 52.30706 -0.65919 35984 ft 484 kts 314°
2026-05-05 19:38 52.33039 -0.69714 35607 ft 470 kts 314°
2026-05-05 19:39 52.35316 -0.73418 34739 ft 455 kts 314°
2026-05-05 19:39 52.37554 -0.77068 33044 ft 456 kts 314°
2026-05-05 19:39 52.39814 -0.80761 30966 ft 463 kts 313°
2026-05-05 19:39 52.42109 -0.84520 28983 ft 466 kts 313°
2026-05-05 19:40 52.44381 -0.88244 27312 ft 458 kts 313°
2026-05-05 19:40 52.46602 -0.91885 26417 ft 441 kts 312°
2026-05-05 19:40 52.48730 -0.95376 25846 ft 425 kts 312°
2026-05-05 19:40 52.50787 -0.98760 25279 ft 413 kts 311°
2026-05-05 19:41 52.52799 -1.02078 24754 ft 409 kts 311°
2026-05-05 19:41 52.54818 -1.05419 24230 ft 418 kts 311°
2026-05-05 19:41 52.56900 -1.08876 23657 ft 430 kts 311°
2026-05-05 19:41 52.59016 -1.12385 22975 ft 431 kts 311°
2026-05-05 19:42 52.61120 -1.15870 22361 ft 427 kts 311°
2026-05-05 19:42 52.63201 -1.19321 21793 ft 423 kts 311°
2026-05-05 19:42 52.65260 -1.22742 21226 ft 418 kts 311°
2026-05-05 19:42 52.67275 -1.26096 20673 ft 415 kts 312°
2026-05-05 19:43 52.69323 -1.29509 20139 ft 411 kts 312°
2026-05-05 19:43 52.71490 -1.32566 19619 ft 409 kts 323°
2026-05-05 19:43 52.73896 -1.35033 19193 ft 407 kts 327°
2026-05-05 19:43 52.76337 -1.37385 18726 ft 406 kts 328°
2026-05-05 19:44 52.78749 -1.39722 18261 ft 406 kts 328°
2026-05-05 19:44 52.81173 -1.42114 17730 ft 404 kts 327°
2026-05-05 19:44 52.83563 -1.44514 17203 ft 400 kts 327°
2026-05-05 19:44 52.85925 -1.46917 16739 ft 395 kts 327°
2026-05-05 19:45 52.88238 -1.49286 16289 ft 391 kts 327°
2026-05-05 19:45 52.90540 -1.51652 15840 ft 389 kts 327°
2026-05-05 19:45 52.92837 -1.54019 15386 ft 388 kts 327°
2026-05-05 19:45 52.95126 -1.56379 14940 ft 387 kts 327°
2026-05-05 19:46 52.97410 -1.58736 14494 ft 386 kts 327°
2026-05-05 19:46 52.99687 -1.61086 14043 ft 385 kts 327°
2026-05-05 19:46 53.01961 -1.63436 13585 ft 384 kts 327°
2026-05-05 19:46 53.04228 -1.65783 13092 ft 381 kts 327°
2026-05-05 19:47 53.06308 -1.68376 12616 ft 369 kts 313°
2026-05-05 19:47 53.07923 -1.71628 12222 ft 362 kts 307°
2026-05-05 19:47 53.09477 -1.74864 11795 ft 356 kts 309°
2026-05-05 19:47 53.11005 -1.77875 11389 ft 351 kts 310°
2026-05-05 19:48 53.12589 -1.80945 10984 ft 346 kts 310°
2026-05-05 19:48 53.14149 -1.83968 10577 ft 342 kts 310°
2026-05-05 19:48 53.15685 -1.86950 10172 ft 337 kts 310°
2026-05-05 19:48 53.17203 -1.89904 9849 ft 330 kts 310°
2026-05-05 19:49 53.18658 -1.92739 9566 ft 323 kts 310°
2026-05-05 19:49 53.19628 -1.94632 9501 ft 313 kts 310°
2026-05-05 19:49 53.21443 -1.98177 9356 ft 291 kts 310°
2026-05-05 19:49 53.22709 -2.00652 9007 ft 271 kts 310°
2026-05-05 19:50 53.23670 -2.03237 8481 ft 258 kts 286°
2026-05-05 19:50 53.23883 -2.06140 7942 ft 248 kts 269°
2026-05-05 19:50 53.23679 -2.09005 7496 ft 249 kts 261°
2026-05-05 19:50 53.23354 -2.11836 7123 ft 248 kts 260°
2026-05-05 19:51 53.23013 -2.14646 6800 ft 245 kts 260°
2026-05-05 19:51 53.22666 -2.17421 6506 ft 244 kts 259°
2026-05-05 19:51 53.22124 -2.20080 6189 ft 244 kts 240°
2026-05-05 19:51 53.21160 -2.22412 5947 ft 245 kts 235°
2026-05-05 19:52 53.20148 -2.24715 5764 ft 246 kts 236°
2026-05-05 19:52 53.19129 -2.27027 5518 ft 246 kts 236°
2026-05-05 19:52 53.18127 -2.29282 5383 ft 243 kts 235°
2026-05-05 19:52 53.17130 -2.31537 5304 ft 239 kts 234°
2026-05-05 19:53 53.16043 -2.33684 5156 ft 247 kts 230°
2026-05-05 19:53 53.14940 -2.35856 5168 ft 244 kts 233°
2026-05-05 19:53 53.13898 -2.38032 5163 ft 244 kts 233°
2026-05-05 19:53 53.12979 -2.40411 5149 ft 241 kts 250°
2026-05-05 19:54 53.12682 -2.43042 5144 ft 227 kts 269°
2026-05-05 19:54 53.12613 -2.45630 5135 ft 222 kts 268°
2026-05-05 19:54 53.12541 -2.48200 4993 ft 223 kts 269°
2026-05-05 19:54 53.12489 -2.50768 4655 ft 219 kts 274°
2026-05-05 19:55 53.12751 -2.53199 4323 ft 206 kts 291°
2026-05-05 19:55 53.13451 -2.55197 3942 ft 193 kts 310°
2026-05-05 19:55 53.14440 -2.56577 3579 ft 180 kts 332°
2026-05-05 19:55 53.15631 -2.57005 3230 ft 177 kts
2026-05-05 19:56 53.16796 -2.56402 3058 ft 175 kts 21°
2026-05-05 19:56 53.17937 -2.55633 3052 ft 180 kts 19°
2026-05-05 19:56 53.19126 -2.54858 3021 ft 184 kts 19°
2026-05-05 19:56 53.19915 -2.54349 3018 ft 183 kts 19°
2026-05-05 19:57 53.21094 -2.53582 3005 ft 181 kts 19°
2026-05-05 19:57 53.22265 -2.52821 3021 ft 179 kts 20°
2026-05-05 19:57 53.23336 -2.51741 3018 ft 186 kts 42°
2026-05-05 19:57 53.24236 -2.50159 3017 ft 188 kts 45°
2026-05-05 19:58 53.25084 -2.48560 3017 ft 180 kts 47°
2026-05-05 19:58 53.25874 -2.46977 3006 ft 176 kts 49°
2026-05-05 19:58 53.26666 -2.45362 2799 ft 181 kts 46°
2026-05-05 19:58 53.27454 -2.43747 2542 ft 178 kts 47°
2026-05-05 19:59 53.28223 -2.42170 2315 ft 175 kts 47°
2026-05-05 19:59 53.28988 -2.40601 2067 ft 173 kts 48°
2026-05-05 19:59 53.29733 -2.39071 1834 ft 164 kts 46°
2026-05-05 19:59 53.30422 -2.37655 1608 ft 151 kts 46°
2026-05-05 20:00 53.31067 -2.36335 1393 ft 144 kts 47°
2026-05-05 20:00 53.31705 -2.35030 1218 ft 147 kts 48°
2026-05-05 20:00 53.32354 -2.33694 1006 ft 149 kts 48°
2026-05-05 20:00 53.33007 -2.32354 800 ft 146 kts 51°
2026-05-05 20:01 53.33631 -2.31069 622 ft 137 kts 51°
2026-05-05 20:01 53.34221 -2.29857 424 ft 134 kts 52°
2026-05-05 20:01 53.34821 -2.28661 250 ft 132 kts 53°
2026-05-05 20:01 53.35334 -2.27580 247 ft 96 kts 51°
2026-05-05 20:02 53.35688 -2.26848 269 ft 61 kts 51°
2026-05-05 20:02 53.35868 -2.26474 274 ft 41 kts 50°
2026-05-05 20:02 53.36032 -2.26165 263 ft 20 kts 19°
2026-05-05 20:02 53.36125 -2.26276 260 ft 14 kts 287°
2026-05-05 20:03 53.36099 -2.26399 260 ft 10 kts 236°
2026-05-05 20:03 53.36066 -2.26474 260 ft 7 kts 232°
2026-05-05 20:03 53.36060 -2.26488 260 ft 0 kts 232°
2026-05-05 20:04 53.36058 -2.26492 260 ft 1 kts 232°
2026-05-05 20:04 53.36054 -2.26499 260 ft 1 kts 231°
2026-05-05 20:04 53.36048 -2.26512 260 ft 2 kts 230°
2026-05-05 20:05 53.36047 -2.26514 260 ft 1 kts 230°
2026-05-05 20:05 53.36031 -2.26546 260 ft 5 kts 231°
2026-05-05 20:05 53.36001 -2.26608 260 ft 9 kts 231°
2026-05-05 20:05 53.35949 -2.26718 260 ft 15 kts 231°
2026-05-05 20:06 53.35889 -2.26856 260 ft 15 kts 235°
2026-05-05 20:06 53.35832 -2.26995 260 ft 14 kts 239°
2026-05-05 20:06 53.35777 -2.27132 260 ft 14 kts 231°
2026-05-05 20:06 53.35715 -2.27256 259 ft 14 kts 231°
2026-05-05 20:07 53.35652 -2.27389 254 ft 17 kts 231°
2026-05-05 20:07 53.35622 -2.27496 250 ft 8 kts 283°
2026-05-05 20:07 53.35656 -2.27568 251 ft 8 kts 317°
2026-05-05 20:07 53.35700 -2.27619 252 ft 7 kts 336°
2026-05-05 20:08 53.35745 -2.27645 254 ft 7 kts 346°
2026-05-05 20:08 53.35791 -2.27646 258 ft 7 kts
2026-05-05 20:08 53.35835 -2.27640 260 ft 6 kts
2026-05-05 20:08 53.35866 -2.27635 260 ft 0 kts
2026-05-05 20:09 53.35867 -2.27635 260 ft 1 kts
2026-05-05 20:10 53.35875 -2.27633 260 ft 1 kts
2026-05-05 20:10 53.35886 -2.27632 260 ft 2 kts
2026-05-05 20:10 53.35902 -2.27631 260 ft 3 kts
2026-05-05 20:10 53.35929 -2.27630 260 ft 4 kts 359°
2026-05-05 20:11 53.35959 -2.27630 260 ft 4 kts
2026-05-05 20:11 53.35978 -2.27628 260 ft 0 kts
2026-05-05 20:12 53.35981 -2.27628 260 ft 1 kts
2026-05-05 20:12 53.35987 -2.27627 260 ft 1 kts
2026-05-05 20:12 53.35996 -2.27625 260 ft 2 kts
2026-05-05 20:12 53.36020 -2.27622 260 ft 7 kts
2026-05-05 20:13 53.36067 -2.27653 260 ft 8 kts 309°
2026-05-05 20:13 53.36085 -2.27741 260 ft 8 kts 286°
2026-05-05 20:13 53.36101 -2.27834 260 ft 8 kts 286°
2026-05-05 20:13 53.36124 -2.27922 260 ft 8 kts 307°
2026-05-05 20:14 53.36167 -2.27988 260 ft 8 kts 317°
2026-05-05 20:14 53.36210 -2.28054 260 ft 9 kts 329°
2026-05-05 20:14 53.36268 -2.28071 260 ft 9 kts
2026-05-05 20:14 53.36323 -2.28036 260 ft 9 kts 30°
2026-05-05 20:15 53.36368 -2.27971 260 ft 9 kts 45°
2026-05-05 20:15 53.36421 -2.27941 260 ft 9 kts 347°
2026-05-05 20:15 53.36471 -2.27994 260 ft 9 kts 323°
2026-05-05 20:15 53.36507 -2.28040 260 ft 5 kts 327°
2026-05-05 20:16 53.36541 -2.28018 260 ft 6 kts 36°
2026-05-05 20:16 53.36565 -2.27983 260 ft 2 kts 43°
2026-05-05 20:16 53.36574 -2.27968 260 ft 1 kts 44°
2026-05-05 20:16 53.36576 -2.27965 260 ft 0 kts 44°